Location: Gniazdowice
(50.2124°N, 20.2673°E)
Time: 00:49:53
(UTC+00:00)

CZ-2C R/B - Pass Details

Date: 23 May 2024
Orbit: 665 x 780 km, 98.4° (Epoch: 18 June)

Event Time Altitude Azimuth Distance (km) Brightness Sun altitude
Rises 01:31:26 0° 22° (NNE) 3,140 7.3 -9.2°
Reaches altitude 10° 01:34:01 10° 34° (NNE) 2,195 6.5 -9.0°
Maximum altitude 01:38:11 29° 94° (E) 1,270 4.1 -8.5°
Drops below altitude 10° 01:42:13 10° 155° (SSE) 2,123 4.6 -8.1°
Sets 01:44:40 0° 166° (SSE) 3,019 5.3 -7.8°
